| time (UTC) | temp F | wind direction | speed MPH | gust MPH | rain 1hr in | rain 24hr in | rain mn in | humidity % | barometer mb |
| 20260506181513 | 45 | 51 | 2.0 | 9.0 | 0.08 | 1.02 | 0.73 | 96 | 1006.7 |
| 20260506180015 | 44 | 104 | 4.0 | 7.0 | 0.08 | 1.01 | 0.72 | 95 | 1007.0 |
| 20260506174506 | 44 | 99 | 2.0 | 9.0 | 0.06 | 0.98 | 0.69 | 95 | 1007.1 |
| 20260506173005 | 44 | 81 | 7.0 | 10.0 | 0.06 | 0.95 | 0.66 | 95 | 1007.0 |
| 20260506171504 | 45 | 81 | 5.0 | 9.0 | 0.07 | 0.94 | 0.65 | 95 | 1007.0 |
| 20260506170004 | 45 | 81 | 5.0 | 10.0 | 0.08 | 0.93 | 0.64 | 95 | 1006.9 |
| 20260506164502 | 45 | 103 | 4.0 | 8.0 | 0.09 | 0.91 | 0.62 | 95 | 1007.2 |
| 20260506163002 | 45 | 47 | 3.0 | 6.0 | 0.09 | 0.89 | 0.60 | 95 | 1007.0 |
| 20260506161501 | 45 | 105 | 1.0 | 4.0 | 0.09 | 0.87 | 0.57 | 95 | 1007.6 |
| 20260506160004 | 45 | 106 | 3.0 | 6.0 | 0.09 | 0.85 | 0.56 | 95 | 1007.2 |
| 20260506154600 | 45 | 45 | 1.0 | 7.0 | 0.07 | 0.82 | 0.53 | 95 | 1007.3 |
| 20260506153102 | 45 | 84 | 3.0 | 7.0 | 0.07 | 0.80 | 0.51 | 95 | 1007.1 |
| 20260506151558 | 45 | 74 | 3.0 | 8.0 | 0.06 | 0.78 | 0.49 | 95 | 1007.1 |
| 20260506150059 | 45 | 77 | 2.0 | 6.0 | 0.05 | 0.76 | 0.47 | 95 | 1007.3 |
| 20260506144557 | 45 | 93 | 2.0 | 4.0 | 0.05 | 0.74 | 0.45 | 95 | 1007.5 |
| 20260506143058 | 45 | 96 | 0.0 | 4.0 | 0.04 | 0.73 | 0.44 | 95 | 1007.8 |
| 20260506141611 | 45 | 84 | 2.0 | 6.0 | 0.04 | 0.72 | 0.43 | 95 | 1007.3 |
| 20260506140057 | 45 | 88 | 3.0 | 7.0 | 0.07 | 0.71 | 0.42 | 96 | 1007.4 |
| 20260506134556 | 45 | 55 | 1.0 | 8.0 | 0.07 | 0.69 | 0.40 | 95 | 1007.7 |
| 20260506133105 | 44 | 83 | 3.0 | 8.0 | 0.12 | 0.69 | 0.40 | 95 | 1007.7 |
| 20260506131557 | 44 | 95 | 2.0 | 10.0 | 0.13 | 0.68 | 0.39 | 95 | 1007.9 |
| 20260506130055 | 44 | 69 | 4.0 | 14.0 | 0.10 | 0.64 | 0.35 | 94 | 1007.3 |
| 20260506124552 | 44 | 41 | 1.0 | 13.0 | 0.11 | 0.62 | 0.33 | 94 | 1008.6 |
| 20260506123050 | 45 | 92 | 3.0 | 9.0 | 0.07 | 0.56 | 0.28 | 94 | 1008.3 |
| 20260506121558 | 45 | 84 | 5.0 | 9.0 | 0.06 | 0.55 | 0.26 | 94 | 1008.4 |
| 20260506120110 | 45 | 78 | 2.0 | 8.0 | 0.05 | 0.54 | 0.25 | 93 | 1008.4 |
| 20260506114546 | 45 | 38 | 2.0 | 8.0 | 0.03 | 0.51 | 0.22 | 91 | 1008.6 |
| 20260506113041 | 46 | 24 | 2.0 | 9.0 | 0.02 | 0.50 | 0.21 | 92 | 1007.9 |
| 20260506111539 | 47 | 18 | 3.0 | 7.0 | 0.02 | 0.49 | 0.20 | 94 | 1007.8 |
| 20260506110034 | 47 | 79 | 3.0 | 10.0 | 0.02 | 0.49 | 0.20 | 94 | 1007.7 |
| 20260506104532 | 47 | 76 | 4.0 | 9.0 | 0.01 | 0.48 | 0.19 | 94 | 1007.7 |
| 20260506103032 | 48 | 84 | 5.0 | 10.0 | 0.02 | 0.48 | 0.19 | 95 | 1007.8 |
| 20260506101528 | 48 | 74 | 6.0 | 10.0 | 0.02 | 0.47 | 0.18 | 95 | 1007.6 |
| 20260506100026 | 49 | 80 | 1.0 | 10.0 | 0.05 | 0.47 | 0.18 | 95 | 1008.3 |
| 20260506094532 | 49 | 113 | 4.0 | 8.0 | 0.06 | 0.47 | 0.18 | 95 | 1007.7 |
| 20260506093039 | 49 | 94 | 0.0 | 7.0 | 0.05 | 0.46 | 0.17 | 96 | 1008.3 |
| 20260506091523 | 50 | 99 | 2.0 | 7.0 | 0.05 | 0.45 | 0.16 | 95 | 1007.9 |
| 20260506090018 | 50 | 84 | 4.0 | 8.0 | 0.04 | 0.42 | 0.13 | 95 | 1008.0 |
| 20260506084517 | 50 | 86 | 3.0 | 8.0 | 0.06 | 0.41 | 0.12 | 95 | 1008.3 |
| 20260506083016 | 50 | 86 | 2.0 | 4.0 | 0.06 | 0.41 | 0.12 | 95 | 1008.3 |
| 20260506081516 | 50 | 86 | 2.0 | 6.0 | 0.05 | 0.40 | 0.11 | 96 | 1008.2 |
| 20260506073010 | 51 | 93 | 2.0 | 8.0 | 0.00 | 0.35 | 0.06 | 95 | 1007.9 |
| 20260506071509 | 51 | 82 | 3.0 | 8.0 | 0.00 | 0.35 | 0.06 | 95 | 1007.7 |
| 20260506061502 | 52 | 18 | 2.0 | 6.0 | 0.02 | 0.35 | 0.06 | 96 | 1008.0 |
| 20260506050103 | 53 | 283 | 0.0 | 3.0 | 0.03 | 0.33 | 0.04 | 94 | 1007.9 |
| 20260506044559 | 53 | 283 | 0.0 | 2.0 | 0.04 | 0.32 | 0.03 | 94 | 1007.6 |
| 20260506043051 | 53 | 283 | 1.0 | 3.0 | 0.06 | 0.32 | 0.03 | 93 | 1007.6 |
| 20260506041554 | 53 | 283 | 0.0 | 6.0 | 0.05 | 0.31 | 0.02 | 92 | 1007.7 |
| 20260506040046 | 54 | 188 | 0.0 | 2.0 | 0.06 | 0.30 | 0.01 | 91 | 1008.0 |
| 20260506034543 | 55 | 188 | 0.0 | 0.0 | 0.05 | 0.28 | 0.28 | 90 | 1007.7 |
| 20260506033041 | 56 | 221 | 0.0 | 6.0 | 0.03 | 0.26 | 0.26 | 89 | 1007.3 |
| 20260506031554 | 57 | 59 | 2.0 | 5.0 | 0.03 | 0.26 | 0.26 | 91 | 1006.9 |
| 20260506030048 | 57 | 225 | 0.0 | 7.0 | 0.01 | 0.24 | 0.24 | 94 | 1006.8 |
| 20260506024537 | 57 | 232 | 2.0 | 4.0 | 0.00 | 0.23 | 0.23 | 95 | 1006.3 |
| 20260506023036 | 57 | 271 | 0.0 | 1.0 | 0.00 | 0.23 | 0.23 | 95 | 1005.9 |
| 20260506021534 | 57 | 271 | 0.0 | 0.0 | 0.00 | 0.23 | 0.23 | 95 | 1006.1 |
| 20260506020033 | 57 | 271 | 0.0 | 1.0 | 0.00 | 0.23 | 0.23 | 94 | 1006.1 |
| 20260506014531 | 57 | 271 | 0.0 | 2.0 | 0.00 | 0.23 | 0.23 | 94 | 1006.0 |
| 20260506013028 | 57 | 271 | 0.0 | 3.0 | 0.00 | 0.23 | 0.23 | 93 | 1005.4 |
| 20260506011528 | 58 | 271 | 0.0 | 0.0 | 0.00 | 0.23 | 0.23 | 93 | 1005.3 |
| 20260506010028 | 58 | 271 | 0.0 | 3.0 | 0.00 | 0.23 | 0.23 | 93 | 1005.1 |
| 20260506004529 | 58 | 271 | 0.0 | 4.0 | 0.00 | 0.23 | 0.23 | 92 | 1005.0 |
| 20260506003025 | 59 | 272 | 0.0 | 0.0 | 0.00 | 0.23 | 0.23 | 92 | 1004.9 |
| 20260506001524 | 59 | 267 | 1.0 | 4.0 | 0.00 | 0.23 | 0.23 | 92 | 1004.6 |
| 20260506000024 | 59 | 254 | 0.0 | 3.0 | 0.00 | 0.23 | 0.23 | 91 | 1004.7 |
| 20260505234548 | 60 | 258 | 0.0 | 3.0 | 0.00 | 0.23 | 0.23 | 90 | 1004.6 |
| 20260505233022 | 60 | 257 | 0.0 | 6.0 | 0.00 | 0.23 | 0.23 | 90 | 1004.7 |
| 20260505231522 | 60 | 223 | 1.0 | 3.0 | 0.00 | 0.23 | 0.23 | 90 | 1004.0 |
| 20260505230022 | 60 | 189 | 1.0 | 3.0 | 0.00 | 0.23 | 0.23 | 92 | 1004.0 |
| 20260505224528 | 60 | 187 | 0.0 | 4.0 | 0.00 | 0.23 | 0.23 | 91 | 1004.2 |
| 20260505223020 | 60 | 192 | 1.0 | 8.0 | 0.00 | 0.23 | 0.23 | 90 | 1004.4 |
| 20260505221520 | 61 | 247 | 0.0 | 4.0 | 0.00 | 0.23 | 0.23 | 90 | 1003.8 |
| 20260505220020 | 61 | 236 | 0.0 | 4.0 | 0.00 | 0.23 | 0.23 | 91 | 1003.7 |
| 20260505214521 | 61 | 261 | 0.0 | 0.0 | 0.00 | 0.23 | 0.23 | 91 | 1003.9 |
| 20260505213017 | 61 | 221 | 1.0 | 5.0 | 0.12 | 0.23 | 0.23 | 91 | 1003.9 |
| 20260505211517 | 61 | 222 | 0.0 | 2.0 | 0.13 | 0.23 | 0.23 | 91 | 1003.9 |
| 20260505210017 | 61 | 221 | 0.0 | 5.0 | 0.13 | 0.23 | 0.23 | 89 | 1003.9 |
| 20260505204524 | 61 | 145 | 2.0 | 5.0 | 0.14 | 0.23 | 0.23 | 89 | 1003.5 |
| 20260505203015 | 62 | 263 | 5.0 | 13.0 | 0.04 | 0.10 | 0.10 | 87 | 1003.0 |
| 20260505201514 | 62 | 210 | 4.0 | 12.0 | 0.06 | 0.10 | 0.10 | 85 | 1002.3 |
| 20260505200022 | 63 | 194 | 2.0 | 10.0 | 0.08 | 0.10 | 0.10 | 86 | 1002.4 |
| 20260505194512 | 63 | 215 | 2.0 | 7.0 | 0.09 | 0.09 | 0.09 | 85 | 1002.2 |
| 20260505193011 | 64 | 261 | 10.0 | 23.0 | 0.06 | 0.06 | 0.06 | 77 | 1002.1 |
| 20260505191510 | 66 | 335 | 2.0 | 9.0 | 0.04 | 0.04 | 0.04 | 72 | 1000.8 |
| 20260505190011 | 71 | 243 | 8.0 | 26.0 | 0.02 | 0.02 | 0.02 | 60 | 1001.1 |
| 20260505184515 | 75 | 190 | 10.0 | 24.0 | 0.00 | 0.00 | 0.00 | 51 | 999.7 |
| 20260505183017 | 75 | 217 | 11.0 | 22.0 | 0.00 | 0.00 | 0.00 | 46 | 1000.1 |